Wind_Speed
10 10 9 9 9 8 8 7 7 7 7 6 6 7 7 7 7 8 8 7 7 8 7 7 7 6 6 6 5 5 5 5 5 5 5 5 5 5 5 5 5 5 5 5
12 12 11 10 9 9 9 9 8 8 8 7 7 7 7 8 8 9 8 8 8 8 7 6 6 6 6 6 5 4 4 5 5 5 6 6 6 6 6 6 6 6 6 6
14 13 12 11 10 10 10 10 10 9 9 8 8 8 9 9 10 9 9 8 8 8 8 7 6 6 6 6 5 5 5 5 5 6 6 6 6 6 7 7 7 7 7 7
16 14 14 12 12 11 11 11 11 10 10 10 10 9 10 10 10 9 8 8 9 8 8 7 7 7 7 7 6 6 6 6 6 7 7 7 7 7 8 8 8 8 8 9
17 16 15 14 13 12 12 12 11 11 10 10 10 9 10 10 10 9 9 9 9 9 9 8 7 8 8 8 7 7 7 7 8 8 8 8 8 8 8 8 8 9 9 10
18 17 17 16 15 14 13 11 11 11 10 11 10 9 9 10 9 9 9 9 9 10 10 10 9 9 9 9 9 8 8 8 8 8 9 8 9 8 9 9 10 10 11 11
18 17 17 17 16 15 13 11 10 10 10 11 11 10 9 10 9 9 9 9 10 10 11 11 11 10 10 10 10 9 9 9 9 10 9 9 8 9 10 10 11 11 12 12
17 17 17 17 17 15 14 12 12 12 12 12 13 12 11 10 10 10 11 11 12 12 11 11 11 11 11 11 11 10 10 10 10 10 10 10 10 11 11 12 13 13 13 13
18 19 18 17 16 16 15 15 15 14 13 13 14 14 12 12 12 12 12 13 13 13 12 12 11 11 11 11 11 11 11 11 11 11 11 11 11 12 13 13 14 14 14 15
20 20 20 19 18 18 18 17 15 14 14 14 15 15 14 14 14 14 14 13 13 12 13 13 12 11 12 12 12 11 12 11 12 13 13 12 12 12 13 13 14 15 15 16
20 20 20 19 19 19 19 18 17 16 17 15 15 16 16 15 14 15 15 14 13 13 13 13 12 12 12 12 12 13 13 13 13 13 13 13 13 14 14 14 15 16 17 17
20 20 20 20 20 20 20 19 19 18 18 18 17 17 17 15 15 16 15 15 14 14 14 14 13 13 12 12 12 13 13 14 13 13 13 14 15 16 16 16 17 18 19 19
21 21 20 20 21 21 21 21 20 20 19 19 17 17 18 16 16 16 15 15 14 14 14 15 14 13 12 12 13 13 14 14 14 15 15 15 16 17 17 18 19 19 19 20
22 22 22 22 22 22 23 22 22 21 20 19 18 18 18 18 17 16 15 15 14 14 14 14 14 13 12 12 13 13 14 15 15 16 16 16 17 18 19 20 19 20 20 20
23 23 23 23 24 24 24 23 22 21 20 19 18 18 18 17 17 16 15 15 15 14 14 13 13 13 13 13 13 14 15 15 16 16 17 18 19 19 20 20 20 20 21 22
23 23 22 23 24 25 24 24 23 23 21 20 19 19 18 18 17 16 16 16 15 14 14 13 13 14 14 14 15 15 15 16 17 17 19 20 20 21 22 22 21 21 22 23
24 23 23 22 23 24 24 23 22 22 22 21 20 19 19 18 18 18 17 16 15 15 14 14 15 15 15 15 15 16 16 17 17 18 19 20 21 21 22 22 22 22 23 23
24 24 24 22 23 24 23 22 22 21 20 20 20 20 19 18 19 19 18 17 16 16 16 15 15 15 16 16 16 17 18 18 19 19 20 21 22 22 22 22 23 23 24 24
25 24 23 22 22 23 23 22 21 20 19 19 20 19 18 18 18 18 17 17 16 16 15 15 15 16 17 18 18 18 19 20 20 21 22 22 23 23 23 24 25 25 25 25
24 24 23 23 22 22 23 22 21 20 20 20 19 19 18 17 17 17 16 16 17 17 17 17 17 18 18 18 18 19 19 20 21 21 22 23 24 24 25 25 25 25 25 26
24 25 25 24 24 24 24 23 22 21 21 20 19 18 18 18 18 18 17 17 17 18 19 19 19 19 19 20 20 20 20 21 22 22 23 24 24 25 26 25 25 26 26 26
24 24 25 26 25 25 24 23 23 23 22 21 21 20 20 19 19 19 18 19 19 20 20 20 20 20 21 21 21 21 22 22 23 23 24 24 24 25 26 26 25 26 27 27
25 25 25 25 26 25 24 24 24 24 23 23 23 23 22 21 21 20 20 21 20 20 21 21 21 22 22 22 22 22 23 23 24 24 24 25 25 26 26 26 26 27 28 28
25 26 27 27 27 27 26 26 26 26 25 24 24 24 23 23 23 22 22 21 21 21 21 22 22 22 22 22 23 23 24 24 24 24 24 25 25 26 26 26 27 27 28 28
26 26 26 27 27 27 27 26 26 25 25 25 25 25 24 24 24 23 22 21 22 22 23 23 23 23 23 23 24 24 24 24 24 24 24 25 25 26 26 27 27 28 28 28
26 25 26 27 26 26 27 27 27 26 26 26 25 25 24 24 24 24 23 23 23 23 23 23 23 23 24 24 23 23 23 23 23 24 25 25 26 26 27 27 27 28 28 29
Wind_Direction
225 228 232 237 237 236 239 244 259 271 279 290 304 312 317 328 330 331 332 335 339 341 344 343 343 345 346 345 351 357 358 358 4 6 1 0 352 340 330 326 322 315 311 306
230 234 237 236 238 239 242 247 254 266 274 284 296 304 306 311 316 320 320 321 324 326 328 335 331 328 334 337 338 343 348 351 355 353 349 348 346 342 332 326 323 314 309 306
232 234 234 236 238 241 245 247 251 262 271 281 289 298 300 300 304 310 313 313 316 319 319 319 318 316 322 328 329 329 333 336 344 341 337 336 331 334 332 326 322 322 316 307
233 232 234 235 238 243 248 251 251 259 272 281 286 292 298 298 300 303 308 307 311 313 316 314 313 312 312 315 316 314 314 315 321 325 325 323 326 329 326 325 326 327 323 316
235 233 234 235 238 243 249 256 257 261 269 274 283 289 292 299 298 298 302 303 304 308 309 312 311 307 304 304 305 306 305 306 312 316 317 320 325 323 324 326 327 323 320 320
234 235 236 236 238 243 252 259 263 268 271 272 275 280 285 295 295 297 298 299 299 304 307 306 305 303 300 299 300 299 300 299 302 307 310 316 323 324 323 322 322 322 322 322
237 237 236 236 238 244 248 254 263 267 269 271 273 274 277 285 290 290 291 297 301 301 303 299 297 299 296 295 297 296 294 295 297 301 304 308 316 319 320 320 321 323 324 321
236 239 239 238 237 242 246 246 248 255 261 269 274 273 275 279 286 290 290 293 298 299 296 293 293 293 293 294 294 295 294 296 296 299 303 308 313 316 318 319 319 317 317 314
232 237 241 240 240 242 246 246 250 256 261 264 268 272 274 277 281 287 290 293 297 297 294 290 290 292 294 292 290 291 292 293 297 299 301 307 312 315 316 316 322 316 316 315
233 237 240 240 241 243 245 248 252 254 259 263 267 272 274 277 280 283 287 290 292 293 294 290 289 289 291 289 285 284 285 287 292 296 299 302 307 314 318 319 320 318 314 312
233 238 240 241 241 245 247 248 250 254 257 262 266 269 271 276 278 278 282 287 288 288 290 291 291 290 289 287 285 284 283 285 290 295 299 303 304 308 312 313 315 316 316 313
235 239 242 244 244 244 247 248 250 253 259 260 262 266 269 271 273 274 279 284 284 282 285 288 288 287 285 286 286 287 284 284 288 295 303 305 306 308 308 310 312 313 314 316
236 239 243 246 248 247 246 247 249 253 257 259 260 263 267 272 274 275 276 280 280 279 281 284 284 285 285 285 285 285 285 288 292 298 301 304 306 307 307 308 309 311 311 314
237 238 239 239 242 247 249 248 249 251 254 257 258 261 266 271 272 273 274 277 277 277 278 280 280 281 283 284 284 286 289 290 292 295 297 300 302 304 305 305 307 310 311 312
238 240 242 243 244 247 249 249 248 249 253 255 256 260 264 267 268 270 272 273 273 273 276 277 277 276 281 284 286 287 288 289 291 293 294 298 300 302 304 305 309 311 312 312
241 243 245 246 247 249 249 249 249 252 254 255 255 256 260 262 265 269 268 270 269 270 275 276 278 278 279 282 286 289 290 290 289 290 294 300 301 302 303 303 306 311 313 313
242 243 246 248 248 249 250 249 250 251 252 252 252 254 256 257 263 266 266 265 266 268 271 275 277 277 278 281 284 286 285 288 290 291 295 299 302 302 303 306 309 312 314 314
239 240 244 248 248 248 249 247 248 250 251 250 251 251 253 256 260 262 264 264 263 264 269 272 273 275 277 281 283 284 284 286 289 291 292 295 297 299 302 306 309 312 313 313
241 240 242 244 247 249 249 247 246 246 247 247 249 251 253 258 262 264 263 263 262 262 266 271 273 273 276 281 285 286 286 285 287 289 292 295 297 300 303 306 309 311 313 314
242 240 242 244 246 247 249 247 247 248 248 248 249 250 252 256 260 261 260 261 261 263 267 270 273 274 276 280 284 285 286 286 286 289 292 295 298 301 303 304 307 310 311 312
239 240 241 243 246 249 247 247 246 247 248 250 249 248 249 250 255 260 261 262 263 265 267 270 273 274 276 279 282 283 285 286 286 288 291 293 295 298 301 303 306 308 309 311
240 241 242 243 244 246 247 247 245 247 250 251 250 251 251 253 257 261 261 263 266 266 267 269 271 273 275 278 280 281 283 285 285 287 289 292 294 297 298 301 304 306 308 309
242 241 242 241 241 243 246 247 247 249 253 253 252 251 251 254 258 260 261 264 266 267 268 269 270 272 274 277 279 280 282 282 284 286 288 291 294 296 298 301 303 305 307 309
244 242 242 242 242 243 245 248 251 251 253 254 253 251 252 255 257 259 262 263 265 267 270 272 273 275 277 277 278 281 283 283 284 286 288 290 293 296 299 301 303 305 307 309
243 243 240 241 244 244 245 247 250 252 252 254 255 253 254 256 258 260 262 263 265 267 270 272 274 276 278 280 279 280 282 283 284 286 288 290 293 296 299 301 303 305 307 309
244 243 241 242 244 246 247 249 249 249 250 253 254 253 254 256 258 260 261 262 265 267 269 270 273 275 277 279 281 280 280 282 285 287 289 292 295 297 299 301 302 304 306 307
Height
5899 5901 5902 5903 5904 5905 5906 5907 5908 5907 5906 5906 5906 5905 5904 5902 5901 5900 5899 5898 5897 5895 5894 5892 5891 5889 5888 5886 5885 5883 5882 5881 5880 5878 5877 5876 5875 5874 5873 5872 5871 5870 5869 5868
5897 5899 5900 5900 5902 5903 5904 5905 5906 5905 5905 5905 5905 5904 5903 5901 5900 5899 5898 5897 5896 5894 5893 5892 5890 5889 5888 5886 5885 5883 5882 5881 5880 5879 5877 5876 5875 5874 5873 5871 5870 5869 5868 5867
5894 5897 5897 5898 5899 5900 5901 5903 5903 5903 5903 5903 5903 5903 5901 5900 5898 5897 5897 5896 5895 5893 5892 5891 5890 5888 5887 5886 5885 5884 5882 5881 5880 5878 5877 5876 5874 5873 5872 5870 5869 5868 5866 5865
5890 5892 5894 5895 5896 5897 5899 5900 5900 5901 5901 5902 5902 5902 5900 5898 5897 5896 5895 5894 5893 5892 5891 5890 5889 5887 5886 5885 5884 5883 5882 5880 5879 5877 5876 5875 5873 5872 5871 5869 5868 5866 5865 5863
5887 5889 5890 5892 5893 5895 5896 5897 5898 5898 5899 5900 5899 5900 5899 5896 5895 5894 5894 5892 5892 5891 5889 5888 5887 5886 5885 5884 5883 5882 5880 5879 5878 5876 5875 5873 5872 5871 5869 5868 5866 5865 5863 5862
5883 5885 5887 5889 5890 5891 5893 5894 5895 5895 5897 5898 5897 5898 5897 5895 5893 5893 5892 5890 5890 5889 5888 5887 5885 5884 5883 5882 5881 5880 5879 5878 5876 5875 5874 5872 5871 5869 5868 5867 5865 5863 5861 5860
5880 5881 5883 5885 5886 5888 5890 5892 5894 5895 5896 5896 5895 5894 5895 5892 5891 5891 5890 5889 5888 5887 5886 5885 5883 5882 5881 5880 5879 5878 5877 5876 5875 5874 5872 5871 5869 5868 5866 5865 5863 5861 5859 5857
5877 5879 5880 5881 5883 5885 5887 5889 5892 5893 5894 5894 5892 5891 5892 5890 5889 5888 5887 5886 5885 5885 5883 5882 5881 5880 5879 5878 5877 5876 5875 5874 5872 5871 5870 5869 5868 5866 5864 5862 5860 5858 5857 5855
5873 5876 5877 5878 5879 5881 5883 5885 5887 5889 5889 5890 5890 5889 5888 5887 5886 5885 5884 5884 5883 5882 5881 5880 5879 5877 5876 5875 5874 5873 5872 5871 5870 5869 5868 5867 5865 5863 5861 5859 5857 5855 5854 5851
5868 5871 5872 5874 5876 5877 5879 5881 5883 5884 5885 5886 5887 5886 5885 5883 5883 5882 5881 5880 5880 5879 5878 5877 5876 5875 5874 5873 5872 5871 5870 5869 5868 5867 5865 5864 5862 5860 5858 5856 5854 5852 5850 5848
5864 5867 5868 5870 5871 5873 5875 5877 5878 5879 5880 5882 5883 5884 5881 5880 5879 5879 5878 5877 5876 5876 5875 5874 5872 5871 5870 5869 5868 5867 5867 5866 5864 5863 5862 5861 5859 5858 5856 5853 5851 5849 5847 5844
5859 5862 5864 5865 5867 5868 5870 5872 5873 5875 5875 5876 5878 5881 5876 5876 5875 5875 5874 5873 5873 5872 5871 5870 5869 5868 5867 5866 5865 5864 5863 5862 5861 5860 5859 5858 5856 5854 5852 5850 5848 5845 5843 5840
5853 5857 5859 5861 5863 5863 5864 5866 5868 5869 5870 5871 5873 5876 5871 5871 5871 5870 5870 5869 5869 5868 5868 5867 5865 5864 5863 5862 5861 5860 5860 5859 5858 5857 5856 5855 5853 5851 5849 5847 5844 5841 5839 5836
5848 5850 5854 5857 5858 5858 5859 5860 5862 5863 5865 5866 5867 5868 5867 5866 5866 5866 5866 5865 5865 5864 5864 5863 5862 5861 5860 5859 5858 5857 5856 5856 5855 5854 5852 5851 5849 5847 5845 5842 5839 5837 5834 5832
5841 5844 5847 5849 5850 5852 5853 5855 5856 5857 5859 5861 5861 5862 5861 5862 5861 5862 5861 5861 5860 5860 5859 5859 5858 5857 5856 5855 5854 5854 5853 5852 5851 5850 5849 5847 5845 5843 5840 5838 5835 5832 5830 5827
5835 5838 5840 5842 5844 5845 5847 5849 5850 5852 5853 5854 5855 5856 5856 5856 5856 5857 5857 5856 5856 5856 5855 5854 5853 5853 5852 5851 5851 5850 5849 5848 5847 5846 5845 5843 5841 5838 5836 5833 5831 5828 5825 5822
5829 5832 5834 5836 5838 5839 5841 5843 5844 5845 5846 5848 5849 5851 5851 5851 5851 5852 5851 5852 5851 5851 5851 5851 5849 5849 5848 5848 5847 5846 5845 5844 5843 5842 5840 5838 5836 5834 5831 5829 5826 5823 5820 5817
5823 5825 5827 5830 5832 5833 5837 5837 5838 5839 5840 5842 5843 5844 5845 5846 5846 5846 5846 5847 5847 5847 5847 5846 5846 5845 5844 5843 5843 5842 5841 5840 5838 5837 5835 5833 5831 5829 5826 5824 5821 5818 5815 5812
5816 5819 5821 5824 5825 5827 5829 5831 5832 5833 5835 5836 5837 5838 5840 5840 5841 5840 5841 5841 5841 5842 5842 5842 5841 5841 5840 5839 5838 5837 5836 5835 5833 5832 5830 5828 5826 5824 5822 5819 5816 5813 5810 5806
5810 5812 5816 5817 5819 5821 5823 5824 5826 5828 5829 5830 5831 5833 5834 5835 5836 5836 5836 5836 5836 5836 5837 5837 5837 5836 5835 5834 5833 5832 5831 5830 5828 5827 5825 5823 5821 5819 5816 5814 5811 5808 5804 5801
5804 5806 5808 5810 5812 5814 5816 5818 5820 5823 5824 5824 5825 5827 5828 5829 5830 5831 5831 5831 5831 5831 5831 5831 5831 5831 5830 5829 5828 5827 5826 5824 5823 5821 5820 5818 5816 5813 5811 5808 5805 5802 5799 5795
5797 5800 5802 5804 5807 5810 5809 5811 5814 5816 5817 5818 5819 5821 5822 5823 5824 5825 5825 5826 5826 5826 5826 5826 5825 5825 5824 5823 5822 5821 5820 5818 5817 5815 5814 5812 5810 5807 5805 5802 5799 5796 5792 5789
5791 5794 5795 5798 5801 5802 5803 5805 5807 5809 5810 5811 5813 5815 5816 5817 5818 5819 5819 5820 5820 5820 5820 5819 5819 5819 5818 5817 5816 5815 5813 5812 5811 5809 5807 5806 5804 5801 5799 5796 5793 5790 5786 5782
5783 5785 5788 5790 5792 5794 5796 5798 5800 5801 5803 5804 5806 5807 5809 5810 5811 5812 5813 5813 5813 5813 5813 5813 5813 5812 5811 5810 5809 5808 5806 5805 5804 5802 5801 5799 5797 5795 5792 5789 5786 5783 5779 5776
5776 5778 5780 5782 5785 5787 5789 5791 5793 5794 5796 5797 5799 5800 5802 5803 5804 5805 5806 5806 5807 5807 5807 5806 5806 5805 5805 5804 5803 5801 5800 5799 5797 5796 5794 5792 5790 5788 5786 5783 5780 5777 5773 5769
5769 5771 5773 5775 5778 5780 5782 5783 5785 5787 5788 5790 5791 5793 5794 5796 5797 5798 5799 5799 5799 5800 5800 5799 5799 5798 5798 5797 5795 5794 5793 5792 5791 5789 5787 5785 5783 5781 5779 5776 5773 5770 5767 5763